Moline, IL

7:10 PM CDT on March 30, 2017 (GMT -0500)
Quad-City International

Weather History for KMLI - December, 2011

Change the Weather History Date:

Monday, December 19, 2011

  Actual Average Record
Temperature  
Mean Temperature 43 °F 25 °F  
Max Temperature 49 °F 33 °F 62 °F (1877)
Min Temperature 36 °F 17 °F -18 °F (1985)
Degree Days  
Heating Degree Days 22 40  
Month to date heating degree days 583 699  
Since 1 July heating degree days 1751 1930  
Cooling Degree Days 0 0  
Month to date cooling degree days 0 0  
Year to date cooling degree days 1126 1004  
Moisture  
Dew Point 34 °F    
Average Humidity 72    
Maximum Humidity 79    
Minimum Humidity 65    
Precipitation  
Precipitation 0.00 in 0.07 in 1.39 in (1987)
Month to date precipitation 2.38 1.46  
Year to date precipitation 34.55 37.24  
Snow  
Snow 0.00 in 0.30 in - ()
Month to date snowfall 1.1 5.2  
Since 1 July snowfall 1.4 6.4  
Snow Depth 0.00 in    
Sea Level Pressure  
Sea Level Pressure 30.04 in    
Wind  
Wind Speed 8 mph (NNW)    
Max Wind Speed 15 mph    
Max Gust Speed 20 mph    
Visibility 10 miles    
Events      
T = Trace of Precipitation, MM = Missing Value Source: NWS Daily Summary

Daily Weather History Graph

Daily Weather History Graph

Search for Another Location

Airport or City:

Trip Planner

Search our weather history database for the weather conditions in past years. The results will help you decide how hot, cold, wet, or windy it might be!

Date:

Astronomy

Dec. 19, 2011 Rise Set
Actual Time 7:23 AM CST 4:34 PM CST
Civil Twilight 6:52 AM CST 5:05 PM CST
Nautical Twilight 6:17 AM CST 5:40 PM CST
Astronomical Twilight 5:43 AM CST 6:14 PM CST
Moon 1:31 AM CST (12/19) 12:35 PM CST (12/19)
Length of Visible Light 10h 13m
Length of Day
9h 10m
Waning Crescent, 31% of the Moon is Illuminated
Dec 19
Waning Crescent
Dec 24
New
Jan 1
First Quarter
Jan 9
Full
Jan 16
Last Quarter

Hourly Weather History & Observations

Time (CST) Temp. Windchill Dew Point Humidity Pressure Visibility Wind Dir Wind Speed Gust Speed Precip Events Conditions
12:52 AM 46.0 °F 41.4 °F 37.0 °F 71% 29.86 in 10.0 mi SW 9.2 mph - N/A   Overcast
1:52 AM 48.0 °F - 37.0 °F 66% 29.86 in 10.0 mi SW 11.5 mph - N/A   Overcast
2:52 AM 48.2 °F - 37.4 °F 66% 29.86 in 10.0 mi SW 9.2 mph - N/A   Overcast
3:52 AM 48.0 °F - 37.0 °F 66% 29.86 in 10.0 mi SW 10.4 mph - N/A   Mostly Cloudy
4:52 AM 45.0 °F 40.6 °F 36.0 °F 71% 29.88 in 10.0 mi WSW 8.1 mph - N/A   Scattered Clouds
5:52 AM 43.0 °F 39.5 °F 35.1 °F 74% 29.89 in 10.0 mi WSW 5.8 mph - N/A   Scattered Clouds
6:52 AM 39.9 °F - 34.0 °F 79% 29.91 in 10.0 mi Calm Calm - N/A   Clear
7:52 AM 43.0 °F 38.2 °F 35.1 °F 74% 29.93 in 10.0 mi WSW 8.1 mph - N/A   Clear
8:52 AM 45.0 °F 40.6 °F 37.0 °F 74% 29.96 in 10.0 mi West 8.1 mph - N/A   Clear
9:52 AM 46.0 °F 41.9 °F 37.0 °F 71% 29.99 in 10.0 mi WNW 8.1 mph - N/A   Clear
10:52 AM 45.0 °F 41.2 °F 37.0 °F 74% 30.01 in 10.0 mi WNW 6.9 mph - N/A   Clear
11:52 AM 45.0 °F 41.8 °F 36.0 °F 71% 30.02 in 10.0 mi Variable 5.8 mph - N/A   Clear
12:52 PM 44.6 °F 41.4 °F 35.6 °F 71% 30.00 in 10.0 mi North 5.8 mph - N/A   Clear
1:52 PM 46.9 °F - 35.1 °F 63% 30.02 in 10.0 mi North 6.9 mph - N/A   Clear
2:52 PM 45.0 °F 40.1 °F 34.0 °F 65% 30.04 in 10.0 mi North 9.2 mph 17.3 mph N/A   Clear
3:52 PM 44.1 °F 39.0 °F 34.0 °F 68% 30.08 in 10.0 mi NNE 9.2 mph - N/A   Clear
4:52 PM 42.1 °F 37.1 °F 33.1 °F 70% 30.11 in 10.0 mi North 8.1 mph - N/A   Partly Cloudy
5:52 PM 41.0 °F 34.3 °F 33.1 °F 73% 30.14 in 10.0 mi NNE 11.5 mph - N/A   Clear
6:14 PM 39.2 °F 32.0 °F 32.0 °F 75% 30.15 in 10.0 mi NNE 11.5 mph - N/A   Mostly Cloudy
6:33 PM 37.4 °F 30.3 °F 32.0 °F 81% 30.17 in 10.0 mi North 10.4 mph - N/A   Partly Cloudy
6:52 PM 37.0 °F 30.4 °F 30.9 °F 79% 30.19 in 10.0 mi North 9.2 mph - N/A   Partly Cloudy
7:10 PM 37.4 °F 29.3 °F 30.2 °F 75% 30.17 in 10.0 mi NNE 12.7 mph - N/A   Mostly Cloudy
7:52 PM 37.0 °F 30.4 °F 30.0 °F 76% 30.18 in 10.0 mi NNE 9.2 mph - N/A   Overcast
8:52 PM 37.0 °F 29.3 °F 28.9 °F 73% 30.20 in 10.0 mi NE 11.5 mph - N/A   Scattered Clouds
9:52 PM 36.0 °F 31.1 °F 28.9 °F 76% 30.21 in 10.0 mi NNE 5.8 mph - N/A   Scattered Clouds
10:52 PM 36.0 °F 32.1 °F 28.9 °F 76% 30.20 in 10.0 mi NNE 4.6 mph - N/A   Overcast
11:52 PM 36.0 °F 32.1 °F 28.9 °F 76% 30.18 in 10.0 mi NE 4.6 mph - N/A   Mostly Cloudy